Theta_e
346 351 360 359 361 364 363 365 366 366 366 367 367 367 367 367 367 367 367 364 363 363 361 362 363 363 364 365 362 362 361 360 360 358 359 362 364 363 362 361 361 354 358
349 354 361 363 363 363 364 364 365 366 366 366 366 366 366 367 367 367 365 363 362 361 360 360 360 361 362 363 364 363 361 363 364 360 359 359 360 360 360 358 358 356 358
350 354 357 365 365 363 364 365 366 365 366 366 367 367 367 367 366 364 363 362 361 361 360 360 360 359 359 361 362 363 364 363 365 364 361 348 353 360 356 357 357 356 356
352 354 356 365 365 362 362 364 365 365 364 365 365 364 365 366 365 362 362 361 361 360 360 359 358 358 359 358 358 359 362 363 359 359 348 346 348 354 361 360 356 356 355
352 353 356 364 365 361 362 363 366 366 365 366 365 364 364 362 362 361 362 361 361 360 359 359 359 358 358 357 358 355 358 359 357 349 344 340 337 348 357 359 361 357 355
351 354 360 364 363 362 362 362 364 366 365 365 364 365 365 362 362 361 362 362 362 361 359 358 357 357 357 355 355 355 356 356 354 347 345 343 340 344 353 358 359 358 356
351 354 358 365 364 363 363 363 363 364 363 361 364 363 363 362 361 362 361 361 360 359 359 357 356 357 356 355 355 354 353 356 346 347 346 346 343 347 352 360 357 357 357
351 356 357 363 363 362 362 364 363 361 360 360 361 360 361 361 360 359 360 360 359 357 356 356 355 356 355 355 356 353 354 356 351 348 347 348 349 351 353 358 358 358 356
354 356 357 357 359 363 363 363 363 361 355 357 358 359 358 357 359 358 359 358 356 357 356 356 356 356 357 356 355 353 354 354 349 346 347 347 350 350 353 358 359 359 358
354 355 355 355 357 355 357 362 362 362 357 355 354 354 356 356 353 356 357 356 356 355 356 356 357 356 357 357 355 355 354 354 343 345 347 346 350 351 354 356 357 356 359
352 353 354 354 353 354 355 357 362 363 361 359 358 356 353 344 345 347 351 354 354 354 356 357 358 357 358 357 358 356 355 347 347 349 349 352 354 356 359 355 355 358 358
347 350 353 353 353 354 357 353 354 355 354 352 351 351 348 345 346 349 352 353 353 353 356 359 359 358 357 351 350 354 348 348 345 346 348 353 355 356 356 356 356 359 358
346 350 352 353 353 353 353 351 352 351 350 348 348 348 347 346 345 348 347 347 344 351 350 352 352 352 351 350 348 346 346 343 342 343 347 357 356 354 358 359 358 357 359
343 346 351 352 351 352 353 352 351 350 349 347 347 347 347 345 345 346 345 345 346 347 348 347 348 349 348 350 348 347 345 342 344 346 346 359 359 359 360 360 360 359 358
343 345 349 351 350 351 352 352 350 351 351 348 348 347 348 345 344 344 344 344 344 346 346 345 345 346 346 347 348 348 346 344 346 345 347 359 360 362 361 360 359 359 358
344 344 349 350 350 351 351 351 351 351 351 348 348 348 348 346 344 344 346 346 344 346 347 346 345 344 344 346 345 346 346 339 341 345 345 350 360 363 361 359 359 359 359
345 347 347 349 350 350 350 351 349 350 351 349 349 348 348 348 345 345 345 344 347 346 346 346 345 344 344 345 342 344 346 345 343 343 344 347 351 361 360 359 361 361 359
345 347 348 350 350 350 348 348 348 350 351 350 349 349 348 348 347 345 344 344 347 345 345 342 341 341 342 342 342 342 343 344 344 342 343 347 350 352 360 361 362 361 359
346 346 348 349 348 348 345 346 344 348 349 349 348 348 347 347 349 347 347 346 346 347 344 342 341 340 339 340 343 344 342 342 343 346 342 345 347 351 350 358 361 361 359
346 347 348 348 346 345 345 343 345 344 346 349 349 348 348 348 349 347 347 347 346 346 344 343 339 341 339 340 346 347 343 342 341 341 341 343 344 347 347 350 353 357 360
345 345 346 345 345 346 343 340 339 340 342 345 348 349 348 349 350 347 346 346 346 344 345 345 342 341 341 341 338 335 338 341 340 339 340 341 341 344 345 347 348 350 353
343 344 345 345 346 346 346 343 341 339 341 345 345 348 348 348 348 346 344 345 346 345 343 343 343 340 338 339 333 330 327 330 334 339 337 339 340 342 344 346 347 348 347
342 344 345 344 346 348 346 343 340 341 340 341 342 343 346 347 349 349 345 343 343 344 342 342 342 341 337 337 336 331 325 323 327 333 336 333 337 338 341 343 344 346 346
341 345 345 344 345 347 345 344 339 337 334 337 340 342 343 345 347 347 346 344 342 343 341 342 345 343 339 335 335 338 335 332 325 322 330 333 331 330 334 339 342 344 345
342 343 344 344 345 346 345 345 342 338 338 339 339 340 342 342 343 344 345 345 344 344 346 344 345 344 341 337 332 332 333 336 329 325 325 329 334 332 330 337 340 341 342
342 343 343 344 344 345 345 344 344 341 339 339 338 339 340 342 342 344 344 344 345 345 345 345 345 346 343 341 337 333 333 334 331 328 328 328 329 334 338 341 338 338 340
Wind_Speed
6 6 10 15 15 15 15 17 19 21 22 22 21 22 21 20 19 18 17 16 15 14 13 13 13 13 15 15 16 15 15 16 16 16 14 13 12 12 11 11 10 8 13
10 7 12 16 17 17 16 15 17 19 20 20 21 22 21 20 19 18 17 16 15 14 12 12 11 12 13 13 12 14 13 13 15 16 14 12 10 10 10 9 8 6 11
13 9 9 13 17 18 17 17 16 17 18 19 19 20 20 19 18 17 17 15 14 13 12 11 10 11 12 11 9 9 12 10 11 12 13 5 3 9 10 9 8 8 8
12 8 7 13 15 17 17 17 17 18 18 17 17 18 17 16 17 17 16 14 13 11 10 9 9 9 11 8 7 6 9 9 8 7 3 5 5 2 8 10 10 7 7
11 7 7 14 15 17 16 16 17 17 17 16 17 16 16 16 15 15 15 13 11 9 8 7 6 7 8 6 6 4 6 8 7 4 1 5 5 5 6 6 7 9 7
11 8 12 16 16 17 16 15 15 17 17 17 15 16 15 15 14 14 13 12 10 9 7 5 4 4 4 3 4 3 5 6 4 3 3 2 3 4 9 8 8 8 8
9 8 11 16 16 16 16 16 15 15 15 17 18 16 15 15 13 13 12 11 10 8 6 3 2 1 1 1 1 2 2 8 3 1 3 5 3 10 10 11 11 10 10
12 9 10 15 16 16 16 16 15 15 13 13 14 15 13 11 12 11 10 9 9 7 5 4 3 2 2 2 3 2 6 9 5 5 5 3 9 14 14 14 12 13 11
12 10 8 9 13 17 16 15 15 15 13 12 13 14 12 13 11 10 9 8 7 6 5 4 4 3 4 4 3 1 7 10 6 5 7 4 13 15 15 14 13 12 12
11 10 8 7 7 6 7 16 15 14 13 13 12 12 13 13 13 11 9 7 6 5 5 5 5 5 5 4 3 4 6 9 6 6 4 4 11 14 16 13 12 12 13
7 9 8 9 7 6 6 9 13 15 15 14 12 12 8 3 3 4 6 7 7 6 6 7 6 5 6 5 5 5 4 1 3 3 3 10 13 14 18 12 12 12 12
11 9 9 9 9 7 6 5 6 5 5 5 5 5 4 5 4 4 6 12 12 10 9 10 7 7 6 1 2 4 1 1 1 3 3 9 14 13 13 12 13 12 13
9 8 9 8 8 8 5 3 3 3 3 3 5 5 5 3 3 2 2 2 2 7 2 4 2 1 1 1 1 1 3 2 1 3 4 9 12 14 15 13 14 14 14
10 13 10 8 6 7 4 4 4 4 3 3 4 5 3 2 3 3 3 4 4 2 3 1 1 2 3 4 3 3 3 3 2 2 4 10 12 14 13 10 12 13 13
17 15 13 10 9 7 7 5 4 5 5 4 4 5 4 4 4 3 3 3 4 3 3 3 2 3 4 5 3 4 4 4 4 2 2 9 10 10 10 11 11 11 12
15 15 13 11 10 9 8 8 7 5 4 4 4 5 6 4 4 3 3 3 4 4 3 3 4 3 4 4 5 5 5 4 4 3 3 4 11 10 11 12 12 12 12
15 14 14 13 11 11 10 8 6 6 5 4 4 6 7 6 5 4 3 4 4 3 4 2 2 2 3 3 5 4 3 5 4 4 4 4 4 12 13 12 13 13 13
14 15 13 13 13 11 10 7 5 6 6 6 4 4 6 7 6 5 4 4 3 3 3 3 3 3 3 3 2 4 2 4 5 4 4 4 3 3 10 13 13 12 15
15 13 13 13 12 11 6 5 4 4 4 3 4 4 6 7 6 5 4 4 5 4 3 3 3 3 2 3 4 4 3 4 4 4 4 5 6 5 3 10 14 13 15
14 13 12 10 9 7 5 4 3 3 4 4 4 5 6 5 6 5 4 4 4 3 3 3 4 4 4 4 3 2 3 4 4 4 5 5 5 5 5 5 4 6 15
13 12 13 11 8 8 4 3 2 4 3 2 4 7 7 6 6 5 4 4 4 4 5 4 3 4 3 1 2 2 2 4 5 4 4 4 5 6 6 5 4 3 4
16 14 12 11 9 9 6 4 3 3 2 2 3 6 6 7 6 6 5 4 4 3 4 4 4 3 2 2 2 2 1 3 3 4 4 4 6 4 6 6 6 6 5
14 16 14 11 11 10 7 4 3 3 2 1 2 2 4 7 7 6 6 5 5 3 3 4 4 5 3 2 2 4 2 3 1 1 4 4 5 5 5 5 6 7 6
14 11 11 10 10 8 9 7 6 4 5 4 3 2 4 6 6 6 5 5 5 4 4 5 4 4 4 4 1 2 1 3 3 2 2 2 4 5 5 4 5 6 6
12 13 12 9 10 8 10 11 8 5 4 3 2 4 4 4 5 5 6 6 5 4 5 6 5 5 3 3 3 2 1 1 2 2 2 3 3 3 4 5 5 6 8
9 10 10 12 12 10 10 9 11 9 7 4 4 6 5 4 4 5 5 5 5 5 5 5 4 5 5 3 3 4 4 4 3 3 1 3 3 3 2 3 5 5 6
Wind_Direction
177 163 139 144 135 127 122 119 118 119 121 123 127 127 127 127 127 123 120 116 109 103 101 98 97 95 95 97 103 105 110 115 115 119 120 116 106 102 105 107 106 112 117
147 160 150 147 138 132 129 123 121 124 126 127 132 131 130 130 128 124 121 120 116 112 109 103 102 98 97 95 100 112 116 118 123 121 123 123 123 117 112 120 118 121 122
148 157 153 154 143 138 135 132 131 131 130 132 133 130 132 130 128 126 125 123 117 117 115 111 105 98 92 93 104 111 115 118 114 114 117 98 77 132 133 134 137 135 129
145 148 158 154 143 141 139 138 140 139 137 135 132 130 130 131 130 131 127 123 120 120 115 108 99 95 91 96 101 117 124 122 104 125 116 114 98 345 164 160 146 145 137
145 146 164 153 148 146 148 150 144 142 143 135 135 135 136 136 137 135 131 129 126 124 116 110 103 93 90 95 95 97 124 143 152 114 341 66 49 34 183 172 160 157 151
145 154 167 158 157 155 154 156 151 146 145 139 140 141 145 143 142 140 137 136 133 132 133 136 119 95 93 100 92 95 145 159 106 352 331 356 333 274 262 194 188 172 167
147 161 165 164 167 164 162 158 158 154 152 154 153 157 152 148 148 146 147 148 147 148 164 181 179 166 156 194 141 125 116 130 113 79 271 286 279 271 249 217 198 186 186
152 158 169 171 172 170 170 168 165 158 157 157 160 157 151 140 154 158 156 153 152 165 175 192 213 207 242 259 247 193 108 127 188 220 237 230 244 243 235 227 203 196 190
157 156 169 175 178 178 178 179 177 167 170 164 160 160 159 168 167 168 159 170 171 192 198 210 235 243 257 266 291 1 127 189 202 219 236 238 236 220 228 230 217 203 189
160 165 167 168 171 174 182 182 184 177 180 181 183 180 173 179 184 182 174 167 182 205 218 230 235 243 249 262 251 222 159 215 175 202 231 227 221 230 231 228 214 199 193
169 171 171 172 163 162 170 184 187 186 184 193 193 190 206 186 191 206 202 200 220 235 248 244 231 238 247 252 252 255 239 159 197 221 229 230 228 222 231 212 209 201 197
176 181 181 183 174 161 178 175 162 185 171 196 156 170 175 160 178 206 233 231 230 244 255 249 237 234 242 198 300 321 342 223 235 262 230 223 213 215 228 214 213 207 203
177 187 191 188 180 167 177 161 153 156 165 162 171 178 166 166 194 232 217 251 244 256 284 262 261 246 199 246 248 292 271 240 240 272 272 225 200 210 225 215 215 217 217
182 191 194 186 170 177 167 169 157 162 175 169 178 186 159 178 200 222 199 208 225 235 237 234 265 272 254 250 243 254 246 253 279 271 243 206 197 214 222 207 213 213 219
188 195 196 179 179 175 174 161 166 187 188 177 166 183 175 188 199 210 207 213 228 204 197 209 232 251 256 262 244 220 221 232 248 276 257 210 201 202 205 213 210 207 211
192 193 192 187 184 175 184 181 181 182 178 173 170 188 185 197 197 208 214 216 227 194 196 203 206 240 248 244 251 240 214 221 227 213 246 239 207 196 204 208 207 211 214
192 190 187 184 182 187 188 191 178 178 167 193 193 188 185 193 200 204 204 215 225 209 189 188 229 253 250 232 253 246 229 214 232 203 232 213 228 201 207 212 212 214 220
183 192 184 191 186 187 193 183 180 182 186 189 188 184 190 191 196 199 197 210 208 206 180 177 202 258 254 235 248 249 220 225 214 224 207 189 200 199 217 215 219 217 222
188 180 183 190 190 185 182 165 158 187 202 192 166 189 190 197 202 191 204 201 195 183 192 184 190 210 220 240 234 234 225 245 220 210 199 202 191 197 204 225 221 220 225
187 183 185 184 179 165 138 120 128 197 215 182 186 198 189 191 186 184 200 205 187 188 191 183 197 203 224 209 250 265 222 244 234 209 202 203 196 188 204 219 230 226 227
186 181 184 177 163 152 144 141 142 197 182 223 209 193 188 180 179 184 194 207 189 194 190 188 175 204 247 224 100 340 290 265 257 222 208 202 198 196 202 215 215 210 232
185 180 175 181 163 171 163 169 157 151 200 214 200 195 181 175 185 182 194 201 209 213 194 194 190 180 180 148 145 89 326 329 298 234 206 211 210 193 214 208 205 213 219
183 182 180 176 171 178 153 117 70 72 35 326 239 199 181 176 192 186 192 188 204 224 215 199 196 193 178 180 160 149 118 220 337 319 229 224 217 203 217 205 210 217 216
183 174 175 168 174 174 150 159 164 187 186 207 195 187 185 178 183 183 184 194 209 198 220 208 203 187 145 186 149 186 85 143 173 329 318 263 211 222 213 210 208 210 201
171 172 169 159 176 176 171 172 185 184 213 169 160 182 203 200 204 200 192 199 206 200 223 204 193 186 189 160 158 140 120 89 103 129 264 317 335 272 231 219 212 215 208
166 165 167 171 187 175 176 181 186 191 194 190 180 191 196 201 201 223 216 216 200 199 216 214 194 192 198 165 177 169 167 173 182 165 184 255 249 294 277 242 231 229 217